SUOMI-100 (43804 NORAD) Tracking and Keplerian Element Data

This shows tracking and keplerian element data for the satellite.

Feedback or suggestion? Click here.




ElementValue
Catalog43804
NameSUOMI-100
Epoch Orbit15202
Epoch Day258.90969317
Epoch Year2021
RAAN327.5131
Inclination97.6556
Eccentricity0.0016495
Argument of Perigee106.8676
Mean Anonmoly253.4356
Mean Motion14.95938085
Decay Rate1.61E-06
L11 43804U 18099AY 21258.90969317 .00000161 00000-0 19470-4 0 9991
L22 43804 97.6556 327.5131 0016495 106.8676 253.4356 14.95938085152020

Live tracking and technical data element details for SUOMI-100 (NORAD 43804). SUOMI-100 can be tracked NOW for your location showing map with azimuth and elevation plus other details from your city location.

Track the satellite on the map from your city or location and see movement details for azimuth, elevation, latitude, longitude, range, height, and movement on the map or in text.







IsCatalogInMostPopularTable: catalog: 43804, numindb: 899
Update: records affected: 1



GetName: 43804 SUOMI-100

Hit Count: updated at: Sat, 18 Sep 2021 09:51:13 GMT